Oklahoma City, OK

6:20 AM CDT on April 27, 2017 (GMT -0500)
Will Rogers World

Weather History for KOKC - July, 2013

Change the Weather History Date:

Saturday, July 13, 2013

  Actual Average Record
Temperature  
Mean Temperature 88 °F 83 °F  
Max Temperature 99 °F 94 °F 106 °F (1954)
Min Temperature 76 °F 72 °F 56 °F (1975)
Cooling Degree Days 23 18  
Month to date cooling degree days 238 226  
Year to date cooling degree days 817 866  
Growing Degree Days 37 (Base 50)    
Moisture  
Dew Point 67 °F    
Average Humidity 56    
Maximum Humidity 76    
Minimum Humidity 35    
Precipitation  
Precipitation 0.00 in 0.09 in 2.10 in (1963)
Month to date precipitation T 1.32  
Year to date precipitation 31.85 20.00  
Sea Level Pressure  
Sea Level Pressure 29.92 in    
Wind  
Wind Speed 10 mph (SSE)    
Max Wind Speed 18 mph    
Max Gust Speed 23 mph    
Visibility 10 miles    
Events      
T = Trace of Precipitation, MM = Missing Value Source: NWS Daily Summary

Daily Weather History Graph

Daily Weather History Graph

Search for Another Location

Airport or City:

Trip Planner

Search our weather history database for the weather conditions in past years. The results will help you decide how hot, cold, wet, or windy it might be!

Date:

Astronomy

Jul. 13, 2013 Rise Set
Actual Time 6:25 AM CDT 8:46 PM CDT
Civil Twilight 5:56 AM CDT 9:15 PM CDT
Nautical Twilight 5:20 AM CDT 9:51 PM CDT
Astronomical Twilight 4:41 AM CDT 10:30 PM CDT
Moon 11:29 AM CDT (7/13) 11:42 PM CDT (7/13)
Length of Visible Light 15h 19m
Length of Day
14h 20m
Waxing Crescent, 26% of the Moon is Illuminated
Jul 13
Waxing Crescent
Jul 15
First Quarter
Jul 22
Full
Jul 29
Last Quarter
Aug 6
New

Hourly Weather History & Observations

Time (CDT) Temp. Heat Index Dew Point Humidity Pressure Visibility Wind Dir Wind Speed Gust Speed Precip Events Conditions
12:52 AM 82.0 °F 84.9 °F 68.0 °F 62% 29.93 in 10.0 mi SE 6.9 mph - N/A   Clear
1:52 AM 79.0 °F - 68.0 °F 69% 29.92 in 10.0 mi SE 6.9 mph - N/A   Clear
2:52 AM 79.0 °F - 68.0 °F 69% 29.92 in 10.0 mi SSE 5.8 mph - N/A   Clear
3:52 AM 78.1 °F - 68.0 °F 71% 29.92 in 10.0 mi South 5.8 mph - N/A   Clear
4:52 AM 77.0 °F - 68.0 °F 74% 29.93 in 10.0 mi SSE 5.8 mph - N/A   Clear
5:52 AM 77.0 °F - 68.0 °F 74% 29.94 in 10.0 mi SSE 9.2 mph - N/A   Clear
6:52 AM 77.0 °F - 69.1 °F 76% 29.96 in 10.0 mi SSE 10.4 mph - N/A   Partly Cloudy
7:52 AM 79.0 °F - 68.0 °F 69% 29.97 in 10.0 mi SSE 11.5 mph - N/A   Partly Cloudy
8:52 AM 82.0 °F 84.5 °F 66.9 °F 60% 29.97 in 8.0 mi South 15.0 mph 20.7 mph N/A   Clear
9:52 AM 84.9 °F 88.2 °F 68.0 °F 57% 29.96 in 10.0 mi South 15.0 mph - N/A   Partly Cloudy
10:52 AM 88.0 °F 91.4 °F 68.0 °F 51% 29.96 in 10.0 mi SSE 15.0 mph 20.7 mph N/A   Partly Cloudy
11:52 AM 90.0 °F 93.6 °F 68.0 °F 48% 29.95 in 10.0 mi SSE 12.7 mph 18.4 mph N/A   Partly Cloudy
12:52 PM 91.9 °F 95.9 °F 68.0 °F 45% 29.94 in 10.0 mi SSW 12.7 mph - N/A   Partly Cloudy
1:52 PM 93.9 °F 97.5 °F 66.9 °F 41% 29.93 in 10.0 mi South 9.2 mph 16.1 mph N/A   Scattered Clouds
2:52 PM 98.1 °F 103.0 °F 68.0 °F 37% 29.90 in 10.0 mi SSE 9.2 mph - N/A   Scattered Clouds
3:52 PM 98.1 °F 101.8 °F 66.0 °F 35% 29.89 in 10.0 mi Variable 6.9 mph - N/A   Mostly Cloudy
4:52 PM 97.0 °F 101.0 °F 66.9 °F 37% 29.87 in 10.0 mi SE 9.2 mph - N/A   Mostly Cloudy
5:52 PM 96.1 °F 99.3 °F 66.0 °F 37% 29.87 in 10.0 mi SSE 8.1 mph - N/A   Mostly Cloudy
6:52 PM 95.0 °F 97.9 °F 66.0 °F 38% 29.86 in 10.0 mi SE 12.7 mph - N/A   Mostly Cloudy
7:52 PM 93.0 °F 95.9 °F 66.0 °F 41% 29.86 in 10.0 mi SE 10.4 mph - N/A   Mostly Cloudy
8:52 PM 91.0 °F 93.8 °F 66.0 °F 44% 29.86 in 10.0 mi SE 13.8 mph - N/A   Mostly Cloudy
9:52 PM 88.0 °F 90.3 °F 66.0 °F 48% 29.87 in 10.0 mi SE 11.5 mph - N/A   Mostly Cloudy
10:52 PM 86.0 °F 88.2 °F 66.0 °F 51% 29.90 in 10.0 mi SSE 9.2 mph - N/A   Mostly Cloudy
11:52 PM 84.9 °F 86.6 °F 64.9 °F 51% 29.89 in 10.0 mi SSE 11.5 mph - N/A   Mostly Cloudy